Time,TemperatureF,DewpointF,PressureIn,WindDirection,WindDirectionDegrees,WindSpeedMPH,WindSpeedGustMPH,Humidity,HourlyPrecipIn,Conditions,Clouds,dailyrainin,SoftwareType,DateUTC
2013-04-28 00:04:00,63.5,51.6,30.02,North,0,0.0,0.0,65,0.00,,,0.00,WUHU216HW,2013-04-28 07:04:00,
2013-04-28 00:09:00,63.5,51.6,30.02,NE,45,0.0,0.0,65,0.00,,,0.00,WUHU216HW,2013-04-28 07:09:00,
2013-04-28 00:29:00,63.7,50.9,30.02,North,0,0.0,0.0,63,0.00,,,0.00,WUHU216HW,2013-04-28 07:29:00,
2013-04-28 00:34:00,63.7,50.9,30.02,ENE,68,0.0,0.0,63,0.00,,,0.00,WUHU216HW,2013-04-28 07:34:00,
2013-04-28 00:47:00,63.4,51.0,30.02,North,0,0.0,0.0,64,0.00,,,0.00,WUHU216HW,2013-04-28 07:47:00,
2013-04-28 00:52:00,63.4,51.0,30.02,North,0,0.0,0.0,64,0.00,,,0.00,WUHU216HW,2013-04-28 07:52:00,
2013-04-28 00:57:00,63.0,50.6,30.02,North,0,0.0,0.0,64,0.00,,,0.00,WUHU216HW,2013-04-28 07:57:00,
2013-04-28 01:02:00,62.8,50.4,30.02,North,0,0.0,0.0,64,0.00,,,0.00,WUHU216HW,2013-04-28 08:02:00,
2013-04-28 01:07:00,62.8,50.9,30.01,North,0,0.0,0.0,65,0.00,,,0.00,WUHU216HW,2013-04-28 08:07:00,
2013-04-28 01:12:00,62.6,50.7,30.01,North,0,0.0,0.0,65,0.00,,,0.00,WUHU216HW,2013-04-28 08:12:00,
2013-04-28 01:17:00,62.6,50.7,30.01,North,0,0.0,0.0,65,0.00,,,0.00,WUHU216HW,2013-04-28 08:17:00,
2013-04-28 01:22:00,62.3,50.3,30.01,North,0,0.0,0.0,65,0.00,,,0.00,WUHU216HW,2013-04-28 08:22:00,
2013-04-28 01:27:00,62.3,50.3,30.01,North,0,0.0,0.0,65,0.00,,,0.00,WUHU216HW,2013-04-28 08:27:00,
2013-04-28 01:32:00,62.1,50.2,30.01,North,0,0.0,0.0,65,0.00,,,0.00,WUHU216HW,2013-04-28 08:32:00,
2013-04-28 01:37:00,61.9,50.1,30.01,North,0,0.0,0.0,65,0.00,,,0.00,WUHU216HW,2013-04-28 08:37:00,
2013-04-28 01:42:00,61.9,50.4,30.01,North,0,0.0,0.0,66,0.00,,,0.00,WUHU216HW,2013-04-28 08:42:00,
2013-04-28 01:47:00,61.7,50.3,30.01,North,0,0.0,0.0,66,0.00,,,0.00,WUHU216HW,2013-04-28 08:47:00,
2013-04-28 01:52:00,61.6,50.1,30.01,SW,216,0.4,0.4,66,0.00,,,0.00,WUHU216HW,2013-04-28 08:52:00,
2013-04-28 01:57:00,61.4,50.4,30.01,SW,227,0.5,0.7,67,0.00,,,0.00,WUHU216HW,2013-04-28 08:57:00,
2013-04-28 02:02:00,61.0,49.6,30.01,North,0,0.0,0.0,66,0.00,,,0.00,WUHU216HW,2013-04-28 09:02:00,
2013-04-28 02:07:00,61.0,49.6,30.01,North,0,0.0,0.0,66,0.00,,,0.00,WUHU216HW,2013-04-28 09:07:00,
2013-04-28 02:12:00,60.8,49.9,30.01,WSW,248,0.3,0.4,67,0.00,,,0.00,WUHU216HW,2013-04-28 09:12:00,
2013-04-28 02:17:00,60.8,49.9,30.01,North,0,0.0,0.0,67,0.00,,,0.00,WUHU216HW,2013-04-28 09:17:00,
2013-04-28 02:22:00,60.5,50.0,30.01,North,0,0.0,0.0,68,0.00,,,0.00,WUHU216HW,2013-04-28 09:22:00,
2013-04-28 02:27:00,60.1,50.0,30.00,North,0,0.0,0.0,69,0.00,,,0.00,WUHU216HW,2013-04-28 09:27:00,
2013-04-28 02:32:00,59.8,49.6,30.01,North,0,0.0,0.0,69,0.00,,,0.00,WUHU216HW,2013-04-28 09:32:00,
2013-04-28 02:37:00,59.6,49.9,30.00,WSW,248,0.4,0.4,70,0.00,,,0.00,WUHU216HW,2013-04-28 09:37:00,
2013-04-28 02:42:00,59.4,49.7,30.00,WSW,248,0.2,0.2,70,0.00,,,0.00,WUHU216HW,2013-04-28 09:42:00,
2013-04-28 02:47:00,59.0,50.4,30.00,WSW,248,0.6,0.7,73,0.00,,,0.00,WUHU216HW,2013-04-28 09:47:00,
2013-04-28 02:52:00,58.7,50.4,30.00,North,0,0.0,0.0,74,0.00,,,0.00,WUHU216HW,2013-04-28 09:52:00,
2013-04-28 02:57:00,58.5,49.5,30.00,North,0,0.0,0.0,72,0.00,,,0.00,WUHU216HW,2013-04-28 09:57:00,
2013-04-28 03:02:00,58.5,49.9,30.00,North,0,0.0,0.0,73,0.00,,,0.00,WUHU216HW,2013-04-28 10:02:00,
2013-04-28 03:07:00,58.5,49.5,30.00,North,0,0.0,0.0,72,0.00,,,0.00,WUHU216HW,2013-04-28 10:07:00,
2013-04-28 03:12:00,58.3,49.3,30.00,North,0,0.0,0.0,72,0.00,,,0.00,WUHU216HW,2013-04-28 10:12:00,
2013-04-28 03:17:00,58.3,49.7,30.00,North,0,0.0,0.0,73,0.00,,,0.00,WUHU216HW,2013-04-28 10:17:00,
2013-04-28 03:22:00,58.1,49.5,30.00,North,0,0.0,0.0,73,0.00,,,0.00,WUHU216HW,2013-04-28 10:22:00,
2013-04-28 03:27:00,58.0,49.3,30.00,North,0,0.0,0.0,73,0.00,,,0.00,WUHU216HW,2013-04-28 10:27:00,
2013-04-28 03:32:00,58.0,49.3,30.00,North,0,0.0,0.0,73,0.00,,,0.00,WUHU216HW,2013-04-28 10:32:00,
2013-04-28 03:37:00,57.8,49.1,30.00,SSE,158,0.2,0.2,73,0.00,,,0.00,WUHU216HW,2013-04-28 10:37:00,
2013-04-28 03:42:00,57.6,49.7,30.00,North,0,0.0,0.0,75,0.00,,,0.00,WUHU216HW,2013-04-28 10:42:00,
2013-04-28 03:47:00,57.4,49.1,30.00,North,0,0.0,0.0,74,0.00,,,0.00,WUHU216HW,2013-04-28 10:47:00,
2013-04-28 03:52:00,57.6,49.3,30.00,North,0,0.0,0.0,74,0.00,,,0.00,WUHU216HW,2013-04-28 10:52:00,
2013-04-28 03:57:00,57.6,49.3,30.00,North,0,0.0,0.0,74,0.00,,,0.00,WUHU216HW,2013-04-28 10:57:00,
2013-04-28 04:02:00,57.6,49.7,30.00,SE,135,0.3,0.4,75,0.00,,,0.00,WUHU216HW,2013-04-28 11:02:00,
2013-04-28 04:07:00,57.4,49.1,30.00,SE,135,0.2,0.2,74,0.00,,,0.00,WUHU216HW,2013-04-28 11:07:00,
2013-04-28 04:12:00,57.4,49.1,30.00,North,0,0.0,0.0,74,0.00,,,0.00,WUHU216HW,2013-04-28 11:12:00,
2013-04-28 04:17:00,57.2,49.0,30.00,North,0,0.0,0.0,74,0.00,,,0.00,WUHU216HW,2013-04-28 11:17:00,
2013-04-28 04:22:00,57.4,49.5,30.00,North,0,0.0,0.0,75,0.00,,,0.00,WUHU216HW,2013-04-28 11:22:00,
2013-04-28 04:27:00,57.4,49.5,30.00,North,0,0.0,0.0,75,0.00,,,0.00,WUHU216HW,2013-04-28 11:27:00,
2013-04-28 04:32:00,57.6,49.7,30.00,North,0,0.0,0.0,75,0.00,,,0.00,WUHU216HW,2013-04-28 11:32:00,
2013-04-28 04:37:00,57.6,49.3,30.00,North,0,0.0,0.0,74,0.00,,,0.00,WUHU216HW,2013-04-28 11:37:00,
2013-04-28 04:43:00,57.6,49.3,30.00,North,0,0.0,0.0,74,0.00,,,0.00,WUHU216HW,2013-04-28 11:43:00,
2013-04-28 04:48:00,57.8,49.5,30.00,North,0,0.0,0.0,74,0.00,,,0.00,WUHU216HW,2013-04-28 11:48:00,
2013-04-28 04:53:00,57.6,49.3,30.00,North,0,0.0,0.0,74,0.00,,,0.00,WUHU216HW,2013-04-28 11:53:00,
2013-04-28 04:58:00,57.4,48.8,30.00,North,0,0.0,0.0,73,0.00,,,0.00,WUHU216HW,2013-04-28 11:58:00,
2013-04-28 05:03:00,57.4,48.8,30.00,North,0,0.0,0.0,73,0.00,,,0.00,WUHU216HW,2013-04-28 12:03:00,
2013-04-28 05:08:00,57.2,49.0,30.00,North,0,0.0,0.0,74,0.00,,,0.00,WUHU216HW,2013-04-28 12:08:00,
2013-04-28 05:13:00,57.2,49.0,30.00,North,0,0.0,0.0,74,0.00,,,0.00,WUHU216HW,2013-04-28 12:13:00,
2013-04-28 05:18:00,57.2,49.0,30.00,North,0,0.0,0.0,74,0.00,,,0.00,WUHU216HW,2013-04-28 12:18:00,
2013-04-28 05:23:00,57.2,49.3,30.00,North,0,0.0,0.0,75,0.00,,,0.00,WUHU216HW,2013-04-28 12:23:00,
2013-04-28 05:28:00,57.2,49.3,29.99,North,0,0.0,0.0,75,0.00,,,0.00,WUHU216HW,2013-04-28 12:28:00,
2013-04-28 05:33:00,57.2,49.0,29.99,North,0,0.0,0.0,74,0.00,,,0.00,WUHU216HW,2013-04-28 12:33:00,
2013-04-28 05:38:00,57.4,49.1,29.99,North,0,0.0,0.0,74,0.00,,,0.00,WUHU216HW,2013-04-28 12:38:00,
2013-04-28 05:43:00,57.6,49.0,29.99,North,0,0.0,0.0,73,0.00,,,0.00,WUHU216HW,2013-04-28 12:43:00,
2013-04-28 05:48:00,57.2,48.6,29.99,North,0,0.0,0.0,73,0.00,,,0.00,WUHU216HW,2013-04-28 12:48:00,
2013-04-28 05:53:00,57.2,48.6,29.99,North,0,0.0,0.0,73,0.00,,,0.00,WUHU216HW,2013-04-28 12:53:00,
2013-04-28 05:58:00,57.2,48.6,29.99,North,0,0.0,0.0,73,0.00,,,0.00,WUHU216HW,2013-04-28 12:58:00,
2013-04-28 06:03:00,57.2,49.0,29.99,North,0,0.0,0.0,74,0.00,,,0.00,WUHU216HW,2013-04-28 13:03:00,
2013-04-28 06:08:00,57.2,49.0,29.99,North,0,0.0,0.0,74,0.00,,,0.00,WUHU216HW,2013-04-28 13:08:00,
2013-04-28 06:13:00,57.2,49.0,29.99,North,0,0.0,0.0,74,0.00,,,0.00,WUHU216HW,2013-04-28 13:13:00,
2013-04-28 06:18:00,57.2,49.0,29.99,North,0,0.0,0.0,74,0.00,,,0.00,WUHU216HW,2013-04-28 13:18:00,
2013-04-28 06:23:00,57.2,49.0,29.99,West,270,0.2,0.2,74,0.00,,,0.00,WUHU216HW,2013-04-28 13:23:00,
2013-04-28 06:28:00,57.2,49.0,29.98,North,0,0.0,0.0,74,0.00,,,0.00,WUHU216HW,2013-04-28 13:28:00,
2013-04-28 06:33:00,57.6,49.3,29.99,North,0,0.0,0.0,74,0.00,,,0.00,WUHU216HW,2013-04-28 13:33:00,
2013-04-28 06:38:00,58.5,50.2,29.98,North,0,0.0,0.0,74,0.00,,,0.00,WUHU216HW,2013-04-28 13:38:00,
2013-04-28 06:43:00,59.8,51.1,29.99,North,0,0.0,0.0,73,0.00,,,0.00,WUHU216HW,2013-04-28 13:43:00,
2013-04-28 06:48:00,61.6,52.5,29.99,North,0,0.0,0.0,72,0.00,,,0.00,WUHU216HW,2013-04-28 13:48:00,
2013-04-28 06:53:00,63.2,53.3,29.99,North,0,0.0,0.0,70,0.00,,,0.00,WUHU216HW,2013-04-28 13:53:00,
2013-04-28 06:58:00,65.7,54.8,29.99,North,0,0.0,0.0,68,0.00,,,0.00,WUHU216HW,2013-04-28 13:58:00,
2013-04-28 07:03:00,67.5,55.3,30.00,West,270,0.4,0.4,65,0.00,,,0.00,WUHU216HW,2013-04-28 14:03:00,
2013-04-28 07:08:00,68.8,55.6,30.00,NNW,347,0.5,1.3,63,0.00,,,0.00,WUHU216HW,2013-04-28 14:08:00,
2013-04-28 07:13:00,69.8,56.3,30.00,North,0,0.0,0.0,62,0.00,,,0.00,WUHU216HW,2013-04-28 14:13:00,
2013-04-28 07:18:00,70.2,55.8,30.00,North,0,0.0,0.0,60,0.00,,,0.00,WUHU216HW,2013-04-28 14:18:00,
2013-04-28 07:23:00,70.4,56.3,30.00,North,0,0.0,0.0,61,0.00,,,0.00,WUHU216HW,2013-04-28 14:23:00,
2013-04-28 07:28:00,72.7,57.5,30.00,North,0,0.0,0.0,59,0.00,,,0.00,WUHU216HW,2013-04-28 14:28:00,
2013-04-28 07:33:00,74.5,58.2,30.00,NW,320,0.3,0.4,57,0.00,,,0.00,WUHU216HW,2013-04-28 14:33:00,
2013-04-28 07:38:00,75.4,57.6,30.00,East,94,0.4,1.1,54,0.00,,,0.00,WUHU216HW,2013-04-28 14:38:00,
2013-04-28 07:43:00,75.2,56.0,30.00,SE,133,1.0,1.8,51,0.00,,,0.00,WUHU216HW,2013-04-28 14:43:00,
2013-04-28 07:48:00,76.7,57.8,30.00,SE,141,0.8,1.8,52,0.00,,,0.00,WUHU216HW,2013-04-28 14:48:00,
2013-04-28 07:53:00,77.8,57.7,30.00,SSE,164,1.4,3.4,50,0.00,,,0.00,WUHU216HW,2013-04-28 14:53:00,
2013-04-28 07:58:00,76.7,56.2,30.00,SE,140,1.4,2.0,49,0.00,,,0.00,WUHU216HW,2013-04-28 14:58:00,
2013-04-28 08:03:00,75.2,56.0,30.00,SSE,149,1.4,2.5,51,0.00,,,0.00,WUHU216HW,2013-04-28 15:03:00,
2013-04-28 08:08:00,74.5,55.7,30.00,South,181,1.5,2.7,52,0.00,,,0.00,WUHU216HW,2013-04-28 15:08:00,
2013-04-28 08:13:00,74.0,55.2,30.00,SSE,154,1.8,2.9,52,0.00,,,0.00,WUHU216HW,2013-04-28 15:13:00,
2013-04-28 08:18:00,73.6,55.4,30.00,SSE,158,2.4,3.4,53,0.00,,,0.00,WUHU216HW,2013-04-28 15:18:00,
2013-04-28 08:23:00,73.4,55.2,30.01,South,169,2.1,2.9,53,0.00,,,0.00,WUHU216HW,2013-04-28 15:23:00,
2013-04-28 08:28:00,73.4,55.2,30.01,South,169,2.1,3.1,53,0.00,,,0.00,WUHU216HW,2013-04-28 15:28:00,
2013-04-28 08:33:00,73.8,55.0,30.00,SSE,163,2.1,3.8,52,0.00,,,0.00,WUHU216HW,2013-04-28 15:33:00,
2013-04-28 08:41:00,74.7,55.9,30.00,SSW,198,2.3,3.1,52,0.00,,,0.00,WUHU216HW,2013-04-28 15:41:00,
2013-04-28 08:51:00,75.8,57.4,30.00,SSE,166,2.1,3.1,53,0.00,,,0.00,WUHU216HW,2013-04-28 15:51:00,
2013-04-28 08:59:00,76.3,57.4,30.00,SSE,163,2.3,3.1,52,0.00,,,0.00,WUHU216HW,2013-04-28 15:59:00,
2013-04-28 09:08:00,77.0,57.6,30.00,SSE,156,2.3,3.6,51,0.00,,,0.00,WUHU216HW,2013-04-28 16:08:00,
2013-04-28 09:17:00,77.6,57.5,30.00,SE,136,1.8,2.5,50,0.00,,,0.00,WUHU216HW,2013-04-28 16:17:00,
2013-04-28 09:26:00,78.3,57.6,30.01,SSE,160,2.5,4.3,49,0.00,,,0.00,WUHU216HW,2013-04-28 16:26:00,
2013-04-28 09:35:00,78.7,57.3,30.00,SSE,168,2.9,4.0,48,0.00,,,0.00,WUHU216HW,2013-04-28 16:35:00,
2013-04-28 09:44:00,79.2,57.8,30.00,South,173,2.6,3.8,48,0.00,,,0.00,WUHU216HW,2013-04-28 16:44:00,
2013-04-28 09:53:00,79.9,57.8,30.00,South,169,3.3,4.7,47,0.00,,,0.00,WUHU216HW,2013-04-28 16:53:00,
2013-04-28 10:02:00,80.3,56.9,30.00,SSE,155,2.8,4.0,45,0.00,,,0.00,WUHU216HW,2013-04-28 17:02:00,
2013-04-28 10:10:00,80.8,58.6,30.00,SSE,168,3.1,5.6,47,0.00,,,0.00,WUHU216HW,2013-04-28 17:10:00,
2013-04-28 10:19:00,81.4,59.1,29.99,SSW,195,2.4,4.3,47,0.00,,,0.00,WUHU216HW,2013-04-28 17:19:00,
2013-04-28 10:43:00,82.4,58.9,29.99,South,171,3.3,4.7,45,0.00,,,0.00,WUHU216HW,2013-04-28 17:43:00,
2013-04-28 10:48:00,82.6,59.1,29.99,SSW,195,3.7,5.6,45,0.00,,,0.00,WUHU216HW,2013-04-28 17:48:00,
2013-04-28 10:53:00,83.0,60.0,29.99,SSW,193,3.0,4.5,46,0.00,,,0.00,WUHU216HW,2013-04-28 17:53:00,
2013-04-28 10:58:00,84.2,59.9,29.98,South,178,3.2,4.7,44,0.00,,,0.00,WUHU216HW,2013-04-28 17:58:00,
2013-04-28 11:03:00,85.1,60.1,29.98,SSE,168,3.1,4.0,43,0.00,,,0.00,WUHU216HW,2013-04-28 18:03:00,
2013-04-28 11:08:00,85.3,59.1,29.98,SSE,163,2.4,4.7,41,0.00,,,0.00,WUHU216HW,2013-04-28 18:08:00,
2013-04-28 11:13:00,84.4,59.5,29.98,South,190,3.2,4.7,43,0.00,,,0.00,WUHU216HW,2013-04-28 18:13:00,
2013-04-28 11:18:00,84.4,60.1,29.98,SSW,205,2.5,4.7,44,0.00,,,0.00,WUHU216HW,2013-04-28 18:18:00,
2013-04-28 11:23:00,84.6,60.9,29.97,SSW,209,3.3,5.4,45,0.00,,,0.00,WUHU216HW,2013-04-28 18:23:00,
2013-04-28 11:28:00,85.1,59.5,29.97,South,177,2.8,5.1,42,0.00,,,0.00,WUHU216HW,2013-04-28 18:28:00,
2013-04-28 11:33:00,85.3,59.1,29.97,South,177,3.4,4.5,41,0.00,,,0.00,WUHU216HW,2013-04-28 18:33:00,
2013-04-28 11:38:00,85.3,59.7,29.97,South,170,2.9,4.9,42,0.00,,,0.00,WUHU216HW,2013-04-28 18:38:00,
2013-04-28 11:43:00,85.5,59.2,29.97,SSW,202,2.1,4.0,41,0.00,,,0.00,WUHU216HW,2013-04-28 18:43:00,
2013-04-28 11:48:00,85.9,60.1,29.97,SSW,193,2.4,4.0,42,0.00,,,0.00,WUHU216HW,2013-04-28 18:48:00,
2013-04-28 11:53:00,85.9,60.1,29.97,SSW,192,3.0,5.4,42,0.00,,,0.00,WUHU216HW,2013-04-28 18:53:00,
2013-04-28 11:58:00,86.4,60.7,29.97,South,171,3.1,5.6,42,0.00,,,0.00,WUHU216HW,2013-04-28 18:58:00,
2013-04-28 12:03:00,87.3,61.5,29.97,SSW,202,2.6,4.7,42,0.00,,,0.00,WUHU216HW,2013-04-28 19:03:00,
2013-04-28 12:08:00,88.2,59.3,29.97,South,173,3.0,4.0,38,0.00,,,0.00,WUHU216HW,2013-04-28 19:08:00,
2013-04-28 12:13:00,87.8,61.9,29.97,WSW,245,2.2,4.5,42,0.00,,,0.00,WUHU216HW,2013-04-28 19:13:00,
2013-04-28 12:18:00,87.7,60.5,29.97,South,189,2.5,5.4,40,0.00,,,0.00,WUHU216HW,2013-04-28 19:18:00,
2013-04-28 12:23:00,87.1,61.3,29.97,SSW,200,2.4,4.5,42,0.00,,,0.00,WUHU216HW,2013-04-28 19:23:00,
2013-04-28 12:28:00,86.9,61.7,29.96,West,266,2.0,3.8,43,0.00,,,0.00,WUHU216HW,2013-04-28 19:28:00,
2013-04-28 12:33:00,87.1,61.9,29.96,SW,235,2.0,4.0,43,0.00,,,0.00,WUHU216HW,2013-04-28 19:33:00,
2013-04-28 12:38:00,87.3,60.9,29.96,WSW,249,1.9,4.0,41,0.00,,,0.00,WUHU216HW,2013-04-28 19:38:00,
2013-04-28 12:43:00,87.5,60.9,29.96,WSW,240,1.5,2.5,41,0.00,,,0.00,WUHU216HW,2013-04-28 19:43:00,
2013-04-28 12:48:00,88.4,61.1,29.95,WSW,257,2.0,3.6,40,0.00,,,0.00,WUHU216HW,2013-04-28 19:48:00,
2013-04-28 12:53:00,89.3,61.0,29.95,SW,224,2.0,3.6,39,0.00,,,0.00,WUHU216HW,2013-04-28 19:53:00,
2013-04-28 12:58:00,89.3,59.4,29.95,SSW,195,3.0,4.7,37,0.00,,,0.00,WUHU216HW,2013-04-28 19:58:00,
2013-04-28 13:03:00,89.1,60.8,29.95,SSW,195,2.0,2.9,39,0.00,,,0.00,WUHU216HW,2013-04-28 20:03:00,
2013-04-28 13:08:00,88.9,58.3,29.95,NW,311,1.7,3.4,36,0.00,,,0.00,WUHU216HW,2013-04-28 20:08:00,
2013-04-28 13:13:00,88.7,59.8,29.94,West,270,1.9,5.8,38,0.00,,,0.00,WUHU216HW,2013-04-28 20:13:00,
2013-04-28 13:18:00,88.7,59.8,29.94,WSW,254,1.7,4.0,38,0.00,,,0.00,WUHU216HW,2013-04-28 20:18:00,
2013-04-28 13:23:00,88.9,60.0,29.94,WNW,297,2.3,5.4,38,0.00,,,0.00,WUHU216HW,2013-04-28 20:23:00,
2013-04-28 13:28:00,89.8,59.1,29.93,West,262,2.6,4.7,36,0.00,,,0.00,WUHU216HW,2013-04-28 20:28:00,
2013-04-28 13:33:00,90.2,58.6,29.93,WNW,298,1.9,4.7,35,0.00,,,0.00,WUHU216HW,2013-04-28 20:33:00,
2013-04-28 13:38:00,90.0,58.5,29.93,WNW,300,2.3,5.6,35,0.00,,,0.00,WUHU216HW,2013-04-28 20:38:00,
2013-04-28 13:43:00,90.0,57.7,29.93,WNW,292,1.9,3.8,34,0.00,,,0.00,WUHU216HW,2013-04-28 20:43:00,
2013-04-28 13:48:00,89.8,57.5,29.92,South,185,1.8,3.6,34,0.00,,,0.00,WUHU216HW,2013-04-28 20:48:00,
2013-04-28 13:53:00,90.2,58.6,29.92,WSW,258,2.1,4.9,35,0.00,,,0.00,WUHU216HW,2013-04-28 20:53:00,
2013-04-28 13:58:00,90.7,57.5,29.92,South,188,1.9,4.0,33,0.00,,,0.00,WUHU216HW,2013-04-28 20:58:00,
2013-04-28 14:03:00,91.4,58.1,29.92,SW,224,2.0,3.8,33,0.00,,,0.00,WUHU216HW,2013-04-28 21:03:00,
2013-04-28 14:08:00,92.2,58.8,29.91,West,273,3.7,5.6,33,0.00,,,0.00,WUHU216HW,2013-04-28 21:08:00,
2013-04-28 14:13:00,92.5,59.0,29.91,West,267,3.4,5.6,33,0.00,,,0.00,WUHU216HW,2013-04-28 21:13:00,
2013-04-28 14:18:00,92.7,58.4,29.91,SW,215,1.5,3.4,32,0.00,,,0.00,WUHU216HW,2013-04-28 21:18:00,
2013-04-28 14:23:00,93.1,59.5,29.90,SW,222,2.4,4.0,33,0.00,,,0.00,WUHU216HW,2013-04-28 21:23:00,
2013-04-28 14:28:00,93.2,58.9,29.90,SSW,208,2.3,4.7,32,0.00,,,0.00,WUHU216HW,2013-04-28 21:28:00,
2013-04-28 14:33:00,92.7,55.7,29.90,NW,321,1.8,2.7,29,0.00,,,0.00,WUHU216HW,2013-04-28 21:33:00,
2013-04-28 14:38:00,91.6,56.7,29.90,NW,317,1.8,3.4,31,0.00,,,0.00,WUHU216HW,2013-04-28 21:38:00,
2013-04-28 14:43:00,91.4,56.6,29.90,WSW,245,2.1,4.5,31,0.00,,,0.00,WUHU216HW,2013-04-28 21:43:00,
2013-04-28 14:48:00,91.6,56.0,29.90,NW,311,2.9,6.9,30,0.00,,,0.00,WUHU216HW,2013-04-28 21:48:00,
2013-04-28 14:53:00,91.3,56.4,29.90,NNW,333,0.7,1.8,31,0.00,,,0.00,WUHU216HW,2013-04-28 21:53:00,
2013-04-28 14:58:00,91.4,56.6,29.89,NW,310,1.8,4.3,31,0.00,,,0.00,WUHU216HW,2013-04-28 21:58:00,
2013-04-28 15:03:00,92.3,58.2,29.88,WSW,250,2.9,6.7,32,0.00,,,0.00,WUHU216HW,2013-04-28 22:03:00,
2013-04-28 15:08:00,93.2,58.1,29.88,SW,223,1.7,3.4,31,0.00,,,0.00,WUHU216HW,2013-04-28 22:08:00,
2013-04-28 15:14:00,93.8,58.5,29.88,WNW,283,2.8,5.8,31,0.00,,,0.00,WUHU216HW,2013-04-28 22:14:00,
2013-04-28 15:19:00,94.0,57.9,29.87,West,273,2.4,4.9,30,0.00,,,0.00,WUHU216HW,2013-04-28 22:19:00,
2013-04-28 15:24:00,93.4,53.0,29.88,NW,316,3.2,6.0,26,0.00,,,0.00,WUHU216HW,2013-04-28 22:24:00,
2013-04-28 15:29:00,92.5,51.2,29.87,NW,321,2.3,4.7,25,0.00,,,0.00,WUHU216HW,2013-04-28 22:29:00,
2013-04-28 15:34:00,92.5,52.3,29.87,NNW,338,2.2,6.0,26,0.00,,,0.00,WUHU216HW,2013-04-28 22:34:00,
2013-04-28 15:39:00,92.7,51.3,29.87,NW,315,2.5,4.7,25,0.00,,,0.00,WUHU216HW,2013-04-28 22:39:00,
2013-04-28 15:44:00,92.7,53.6,29.87,WNW,292,2.5,4.9,27,0.00,,,0.00,WUHU216HW,2013-04-28 22:44:00,
2013-04-28 15:49:00,92.5,53.4,29.87,NW,309,4.7,6.7,27,0.00,,,0.00,WUHU216HW,2013-04-28 22:49:00,
2013-04-28 15:54:00,92.7,51.3,29.86,NNW,327,3.8,6.5,25,0.00,,,0.00,WUHU216HW,2013-04-28 22:54:00,
2013-04-28 15:59:00,92.2,53.1,29.86,NW,308,4.1,7.2,27,0.00,,,0.00,WUHU216HW,2013-04-28 22:59:00,
2013-04-28 16:04:00,91.8,56.1,29.86,NW,312,4.0,6.7,30,0.00,,,0.00,WUHU216HW,2013-04-28 23:04:00,
2013-04-28 16:09:00,91.8,55.0,29.86,NW,312,4.6,6.7,29,0.00,,,0.00,WUHU216HW,2013-04-28 23:09:00,
2013-04-28 16:14:00,92.0,56.3,29.86,WNW,303,3.8,6.5,30,0.00,,,0.00,WUHU216HW,2013-04-28 23:14:00,
2013-04-28 16:19:00,91.8,55.0,29.86,NW,323,2.3,5.8,29,0.00,,,0.00,WUHU216HW,2013-04-28 23:19:00,
2013-04-28 16:24:00,92.0,55.2,29.85,WNW,298,3.4,5.4,29,0.00,,,0.00,WUHU216HW,2013-04-28 23:24:00,
2013-04-28 16:29:00,91.8,55.0,29.86,NW,310,3.0,6.9,29,0.00,,,0.00,WUHU216HW,2013-04-28 23:29:00,
2013-04-28 16:34:00,92.2,55.3,29.85,WNW,296,4.4,6.3,29,0.00,,,0.00,WUHU216HW,2013-04-28 23:34:00,
2013-04-28 16:39:00,92.2,54.2,29.85,NW,308,3.8,6.9,28,0.00,,,0.00,WUHU216HW,2013-04-28 23:39:00,
2013-04-28 16:44:00,92.2,53.1,29.84,NW,308,3.4,6.7,27,0.00,,,0.00,WUHU216HW,2013-04-28 23:44:00,
2013-04-28 16:49:00,91.6,54.8,29.84,NW,307,4.2,6.9,29,0.00,,,0.00,WUHU216HW,2013-04-28 23:49:00,
2013-04-28 16:54:00,91.1,54.4,29.84,NW,305,4.2,5.6,29,0.00,,,0.00,WUHU216HW,2013-04-28 23:54:00,
2013-04-28 16:59:00,91.6,54.8,29.84,WNW,297,4.4,5.8,29,0.00,,,0.00,WUHU216HW,2013-04-28 23:59:00,
2013-04-28 17:04:00,92.3,53.2,29.84,WNW,300,5.0,6.5,27,0.00,,,0.00,WUHU216HW,2013-04-29 00:04:00,
2013-04-28 17:09:00,92.2,53.1,29.84,NW,314,2.9,5.4,27,0.00,,,0.00,WUHU216HW,2013-04-29 00:09:00,
2013-04-28 17:14:00,91.8,52.8,29.84,NW,312,3.7,6.0,27,0.00,,,0.00,WUHU216HW,2013-04-29 00:14:00,
2013-04-28 17:19:00,91.8,52.8,29.84,NW,306,4.1,6.3,27,0.00,,,0.00,WUHU216HW,2013-04-29 00:19:00,
2013-04-28 17:24:00,91.4,52.5,29.84,NW,312,4.2,6.0,27,0.00,,,0.00,WUHU216HW,2013-04-29 00:24:00,
2013-04-28 17:29:00,91.6,52.7,29.83,WNW,288,4.3,6.5,27,0.00,,,0.00,WUHU216HW,2013-04-29 00:29:00,
2013-04-28 17:34:00,91.4,50.3,29.83,NW,304,4.6,6.3,25,0.00,,,0.00,WUHU216HW,2013-04-29 00:34:00,
2013-04-28 17:39:00,91.3,50.1,29.83,NW,308,3.3,6.0,25,0.00,,,0.00,WUHU216HW,2013-04-29 00:39:00,
2013-04-28 17:44:00,91.1,48.9,29.83,NW,319,4.2,6.3,24,0.00,,,0.00,WUHU216HW,2013-04-29 00:44:00,
2013-04-28 17:49:00,90.7,49.7,29.83,WNW,303,3.0,4.7,25,0.00,,,0.00,WUHU216HW,2013-04-29 00:49:00,
2013-04-28 17:54:00,90.7,49.7,29.83,NW,316,3.9,7.6,25,0.00,,,0.00,WUHU216HW,2013-04-29 00:54:00,
2013-04-28 17:59:00,90.9,50.9,29.83,WNW,300,3.3,5.4,26,0.00,,,0.00,WUHU216HW,2013-04-29 00:59:00,
2013-04-28 18:04:00,91.1,50.1,29.82,NW,308,3.7,5.8,25,0.00,,,0.00,WUHU216HW,2013-04-29 01:04:00,
2013-04-28 18:09:00,90.5,49.5,29.82,NW,315,3.7,5.6,25,0.00,,,0.00,WUHU216HW,2013-04-29 01:09:00,
2013-04-28 18:14:00,90.0,49.1,29.83,NW,310,4.3,6.5,25,0.00,,,0.00,WUHU216HW,2013-04-29 01:14:00,
2013-04-28 18:19:00,89.5,47.5,29.82,NW,308,4.6,6.5,24,0.00,,,0.00,WUHU216HW,2013-04-29 01:19:00,
2013-04-28 18:24:00,89.1,48.3,29.82,NW,319,2.6,5.8,25,0.00,,,0.00,WUHU216HW,2013-04-29 01:24:00,
2013-04-28 18:29:00,88.6,46.8,29.83,NW,307,3.7,6.3,24,0.00,,,0.00,WUHU216HW,2013-04-29 01:29:00,
2013-04-28 18:34:00,88.4,45.5,29.83,WNW,303,4.3,6.3,23,0.00,,,0.00,WUHU216HW,2013-04-29 01:34:00,
2013-04-28 18:39:00,88.0,45.3,29.83,NW,308,3.6,5.4,23,0.00,,,0.00,WUHU216HW,2013-04-29 01:39:00,
2013-04-28 18:44:00,87.7,45.0,29.83,NW,306,3.7,6.3,23,0.00,,,0.00,WUHU216HW,2013-04-29 01:44:00,
2013-04-28 18:49:00,87.5,44.8,29.82,NW,314,3.0,4.3,23,0.00,,,0.00,WUHU216HW,2013-04-29 01:49:00,
2013-04-28 18:54:00,86.9,44.4,29.82,NW,314,2.7,4.3,23,0.00,,,0.00,WUHU216HW,2013-04-29 01:54:00,
2013-04-28 18:59:00,86.9,45.5,29.83,NW,324,1.7,2.7,24,0.00,,,0.00,WUHU216HW,2013-04-29 01:59:00,
2013-04-28 19:04:00,86.9,45.5,29.82,NW,316,1.5,2.2,24,0.00,,,0.00,WUHU216HW,2013-04-29 02:04:00,
2013-04-28 19:09:00,86.9,46.5,29.82,NW,307,1.4,2.5,25,0.00,,,0.00,WUHU216HW,2013-04-29 02:09:00,
2013-04-28 19:14:00,86.9,46.5,29.82,WNW,303,0.9,1.3,25,0.00,,,0.00,WUHU216HW,2013-04-29 02:14:00,
2013-04-28 19:19:00,86.8,46.4,29.82,WNW,299,0.6,1.1,25,0.00,,,0.00,WUHU216HW,2013-04-29 02:19:00,
2013-04-28 19:24:00,85.9,46.6,29.82,North,0,0.0,0.0,26,0.00,,,0.00,WUHU216HW,2013-04-29 02:24:00,
2013-04-28 19:29:00,85.3,48.3,29.82,North,0,0.0,0.0,28,0.00,,,0.00,WUHU216HW,2013-04-29 02:29:00,
2013-04-28 19:34:00,83.9,48.2,29.82,North,0,0.9,1.1,29,0.00,,,0.00,WUHU216HW,2013-04-29 02:34:00,
2013-04-28 19:39:00,83.0,48.3,29.82,North,0,0.0,0.0,30,0.00,,,0.00,WUHU216HW,2013-04-29 02:39:00,
2013-04-28 19:44:00,82.1,47.6,29.82,North,0,0.0,0.0,30,0.00,,,0.00,WUHU216HW,2013-04-29 02:44:00,
2013-04-28 19:49:00,81.0,48.2,29.82,North,0,0.0,0.0,32,0.00,,,0.00,WUHU216HW,2013-04-29 02:49:00,
2013-04-28 19:54:00,80.1,48.2,29.83,North,0,0.0,0.0,33,0.00,,,0.00,WUHU216HW,2013-04-29 02:54:00,
2013-04-28 19:59:00,79.7,48.0,29.83,North,0,0.0,0.0,33,0.00,,,0.00,WUHU216HW,2013-04-29 02:59:00,
2013-04-28 20:04:00,79.4,49.1,29.83,North,0,0.0,0.0,35,0.00,,,0.00,WUHU216HW,2013-04-29 03:04:00,
2013-04-28 20:09:00,78.8,49.5,29.83,North,0,0.0,0.0,36,0.00,,,0.00,WUHU216HW,2013-04-29 03:09:00,
2013-04-28 20:14:00,78.3,49.8,29.84,North,0,0.0,0.0,37,0.00,,,0.00,WUHU216HW,2013-04-29 03:14:00,
2013-04-28 20:19:00,77.6,49.9,29.83,North,0,0.0,0.0,38,0.00,,,0.00,WUHU216HW,2013-04-29 03:19:00,
2013-04-28 20:24:00,76.9,50.1,29.84,North,0,0.0,0.0,39,0.00,,,0.00,WUHU216HW,2013-04-29 03:24:00,
2013-04-28 20:29:00,76.0,50.0,29.84,North,0,0.0,0.0,40,0.00,,,0.00,WUHU216HW,2013-04-29 03:29:00,
2013-04-28 20:34:00,75.4,50.1,29.84,North,0,0.0,0.0,41,0.00,,,0.00,WUHU216HW,2013-04-29 03:34:00,
2013-04-28 20:39:00,75.1,49.8,29.84,North,0,0.0,0.0,41,0.00,,,0.00,WUHU216HW,2013-04-29 03:39:00,
2013-04-28 20:44:00,74.5,49.9,29.84,North,0,0.0,0.0,42,0.00,,,0.00,WUHU216HW,2013-04-29 03:44:00,
2013-04-28 20:49:00,74.3,49.7,29.84,North,0,0.0,0.0,42,0.00,,,0.00,WUHU216HW,2013-04-29 03:49:00,
2013-04-28 20:54:00,74.0,49.4,29.84,North,0,0.0,0.0,42,0.00,,,0.00,WUHU216HW,2013-04-29 03:54:00,
2013-04-28 20:59:00,73.4,49.5,29.84,North,0,0.0,0.0,43,0.00,,,0.00,WUHU216HW,2013-04-29 03:59:00,
2013-04-28 21:04:00,73.1,49.1,29.84,NNW,338,0.2,0.2,43,0.00,,,0.00,WUHU216HW,2013-04-29 04:04:00,
2013-04-28 21:09:00,72.7,48.9,29.85,NNW,341,0.2,0.4,43,0.00,,,0.00,WUHU216HW,2013-04-29 04:09:00,
2013-04-28 21:14:00,72.5,48.7,29.85,North,351,0.2,0.4,43,0.00,,,0.00,WUHU216HW,2013-04-29 04:14:00,
2013-04-28 21:19:00,72.4,48.5,29.85,North,0,0.0,0.0,43,0.00,,,0.00,WUHU216HW,2013-04-29 04:19:00,
2013-04-28 21:24:00,72.0,48.2,29.85,North,0,0.0,0.0,43,0.00,,,0.00,WUHU216HW,2013-04-29 04:24:00,
2013-04-28 21:29:00,71.6,47.9,29.85,North,0,0.0,0.0,43,0.00,,,0.00,WUHU216HW,2013-04-29 04:29:00,
2013-04-28 21:34:00,71.1,48.0,29.85,North,0,0.2,0.4,44,0.00,,,0.00,WUHU216HW,2013-04-29 04:34:00,
2013-04-28 21:39:00,70.7,47.6,29.85,North,0,0.2,0.2,44,0.00,,,0.00,WUHU216HW,2013-04-29 04:39:00,
2013-04-28 21:44:00,70.6,47.5,29.85,North,0,0.0,0.0,44,0.00,,,0.00,WUHU216HW,2013-04-29 04:44:00,
2013-04-28 21:49:00,70.2,47.8,29.85,North,0,0.0,0.0,45,0.00,,,0.00,WUHU216HW,2013-04-29 04:49:00,
2013-04-28 21:54:00,70.2,48.3,29.86,North,0,0.0,0.0,46,0.00,,,0.00,WUHU216HW,2013-04-29 04:54:00,
2013-04-28 21:59:00,69.8,48.6,29.86,North,0,0.0,0.0,47,0.00,,,0.00,WUHU216HW,2013-04-29 04:59:00,
2013-04-28 22:04:00,69.5,48.9,29.86,North,0,0.0,0.0,48,0.00,,,0.00,WUHU216HW,2013-04-29 05:04:00,
2013-04-28 22:09:00,68.9,47.8,29.86,North,0,0.0,0.0,47,0.00,,,0.00,WUHU216HW,2013-04-29 05:09:00,
2013-04-28 22:14:00,68.8,48.9,29.86,North,0,0.0,0.0,49,0.00,,,0.00,WUHU216HW,2013-04-29 05:14:00,
2013-04-28 22:19:00,68.4,48.5,29.86,North,0,0.0,0.0,49,0.00,,,0.00,WUHU216HW,2013-04-29 05:19:00,
2013-04-28 22:24:00,68.2,48.3,29.86,North,0,0.0,0.0,49,0.00,,,0.00,WUHU216HW,2013-04-29 05:24:00,
2013-04-28 22:29:00,68.0,48.2,29.86,North,0,0.0,0.0,49,0.00,,,0.00,WUHU216HW,2013-04-29 05:29:00,
2013-04-28 22:34:00,67.9,48.6,29.86,North,0,0.0,0.0,50,0.00,,,0.00,WUHU216HW,2013-04-29 05:34:00,
2013-04-28 22:39:00,67.3,49.6,29.86,ENE,61,0.9,1.1,53,0.00,,,0.00,WUHU216HW,2013-04-29 05:39:00,
2013-04-28 22:44:00,66.6,49.0,29.86,NE,50,0.5,1.1,53,0.00,,,0.00,WUHU216HW,2013-04-29 05:44:00,
2013-04-28 22:49:00,66.1,49.4,29.86,North,0,0.0,0.0,55,0.00,,,0.00,WUHU216HW,2013-04-29 05:49:00,
2013-04-28 22:54:00,65.3,49.7,29.86,North,0,0.0,0.0,57,0.00,,,0.00,WUHU216HW,2013-04-29 05:54:00,
2013-04-28 22:59:00,65.2,48.5,29.86,North,0,0.0,0.0,55,0.00,,,0.00,WUHU216HW,2013-04-29 05:59:00,
2013-04-28 23:04:00,65.2,49.0,29.86,North,0,0.0,0.0,56,0.00,,,0.00,WUHU216HW,2013-04-29 06:04:00,
2013-04-28 23:09:00,65.2,50.5,29.86,North,0,0.0,0.0,59,0.00,,,0.00,WUHU216HW,2013-04-29 06:09:00,
2013-04-28 23:14:00,65.0,49.8,29.85,North,0,0.0,0.0,58,0.00,,,0.00,WUHU216HW,2013-04-29 06:14:00,
2013-04-28 23:19:00,64.8,50.6,29.86,North,0,0.0,0.0,60,0.00,,,0.00,WUHU216HW,2013-04-29 06:19:00,
2013-04-28 23:24:00,64.6,50.0,29.86,North,0,0.0,0.0,59,0.00,,,0.00,WUHU216HW,2013-04-29 06:24:00,
2013-04-28 23:29:00,64.4,49.2,29.86,North,0,0.0,0.0,58,0.00,,,0.00,WUHU216HW,2013-04-29 06:29:00,
2013-04-28 23:34:00,64.3,49.6,29.86,North,0,0.0,0.0,59,0.00,,,0.00,WUHU216HW,2013-04-29 06:34:00,
2013-04-28 23:39:00,64.3,49.6,29.86,North,0,0.0,0.0,59,0.00,,,0.00,WUHU216HW,2013-04-29 06:39:00,
2013-04-28 23:44:00,64.1,49.0,29.86,ESE,113,0.2,0.2,58,0.00,,,0.00,WUHU216HW,2013-04-29 06:44:00,
2013-04-28 23:49:00,64.1,48.4,29.86,North,0,0.0,0.0,57,0.00,,,0.00,WUHU216HW,2013-04-29 06:49:00,
2013-04-28 23:54:00,64.1,48.0,29.86,North,0,0.0,0.0,56,0.00,,,0.00,WUHU216HW,2013-04-29 06:54:00,
2013-04-28 23:59:00,64.3,48.2,29.86,North,0,0.0,0.0,56,0.00,,,0.00,WUHU216HW,2013-04-29 06:59:00,